Date String (YYYY-MM-DD hh:mm:ss) UTC,Instrument flags,Ambient pressure (hPa),Sample flow (lpm),Bypass flow (lpm),Sample temperature (°C),Ambient temperature (°C),ASC tube jacket temperature (°C),LED temperature (°C),Box temperature (°C),Sample RH (%),Span deviation,Mass concentration (μg/m³),Mass concentration (μg/m³),Mass concentration (μg/m³)
DateTimeUTC,F1_M11,P_M11,Q1_M11,Q2_M11,T1_M11,T2_M11,T3_M11,T4_M11,T5_M11,U1_M11,ZSPAN_M11,X0_M11,X2_M11,X1_M11
2022-05-02 08:00:00,,0822.0,4.99,0.00,27.8,26.9,00.0,36.9,29.6,20.7,0000.0,0011.77,0007.15,0005.88
2022-05-02 08:01:00,,0822.0,4.99,0.00,27.8,26.9,00.0,36.9,29.5,20.7,0000.0,0011.83,0007.17,0005.91
2022-05-02 08:02:00,,0822.0,5.01,0.00,27.8,26.8,00.0,36.8,29.5,20.7,0000.0,0011.80,0007.18,0005.95
2022-05-02 08:03:00,,0821.9,4.99,0.00,27.8,26.8,00.0,36.8,29.5,20.7,0000.0,0011.63,0007.15,0005.98
2022-05-02 08:04:00,,0821.9,5.00,0.00,27.8,26.8,00.0,36.8,29.5,20.6,0000.0,0011.66,0007.16,0006.02
2022-05-02 08:05:00,,0821.9,5.01,0.00,27.7,26.7,00.0,36.8,29.5,20.6,0000.0,0011.64,0007.17,0006.07
2022-05-02 08:06:00,,0821.9,4.99,0.00,27.7,26.7,00.0,36.8,29.5,20.5,0000.0,0011.67,0007.20,0006.11
2022-05-02 08:07:00,,0821.9,5.01,0.00,27.7,26.7,00.0,36.8,29.5,20.5,0000.0,0011.64,0007.21,0006.16
2022-05-02 08:08:00,,0821.9,4.99,0.00,27.7,26.7,00.0,36.8,29.5,20.5,0000.0,0011.57,0007.20,0006.22
2022-05-02 08:09:00,,0821.9,4.99,0.00,27.7,26.7,00.0,36.8,29.5,20.4,0000.0,0011.49,0007.19,0006.27
2022-05-02 08:10:00,,0821.9,5.01,0.00,27.7,26.7,00.0,36.7,29.5,20.4,0000.0,0011.31,0007.17,0006.32
2022-05-02 08:11:00,,0821.7,5.00,0.00,27.7,26.7,00.0,36.7,29.4,20.4,0000.0,0010.95,0007.14,0006.37
2022-05-02 08:12:00,,0822.0,4.99,0.00,27.7,26.7,00.0,36.7,29.4,20.4,0000.0,0010.92,0007.19,0006.42
2022-05-02 08:13:00,,0821.8,5.01,0.00,27.7,26.7,00.0,36.7,29.4,20.3,0000.0,0010.82,0007.20,0006.44
2022-05-02 08:14:00,,0821.8,4.99,0.00,27.7,26.7,00.0,36.7,29.4,20.3,0000.0,0010.96,0007.23,0006.47
2022-05-02 08:15:00,,0821.8,4.98,0.00,27.6,26.7,00.0,36.7,29.4,20.3,0000.0,0011.09,0007.28,0006.49
2022-05-02 08:16:00,,0821.8,5.02,0.00,27.6,26.7,00.0,36.7,29.4,20.3,0000.0,0011.34,0007.34,0006.50
2022-05-02 08:17:00,,0821.8,4.99,0.00,27.7,26.7,00.0,36.7,29.4,20.3,0000.0,0011.30,0007.33,0006.52
2022-05-02 08:18:00,,0821.9,5.01,0.00,27.7,26.7,00.0,36.7,29.4,20.2,0000.0,0011.37,0007.34,0006.53
2022-05-02 08:19:00,,0821.9,5.01,0.00,27.6,26.7,00.0,36.7,29.4,20.2,0000.0,0011.47,0007.35,0006.53
2022-05-02 08:20:00,,0821.8,4.99,0.00,27.6,26.7,00.0,36.7,29.4,20.1,0000.0,0011.56,0007.37,0006.54
2022-05-02 08:21:00,,0821.8,5.00,0.00,27.7,26.7,00.0,36.7,29.4,20.1,0000.0,0011.57,0007.37,0006.54
2022-05-02 08:22:00,,0821.7,5.00,0.00,27.7,26.7,00.0,36.7,29.4,20.1,0000.0,0011.44,0007.35,0006.55
2022-05-02 08:23:00,,0821.7,4.99,0.00,27.6,26.7,00.0,36.6,29.4,20.0,0000.0,0011.28,0007.28,0006.53
2022-05-02 08:24:00,,0821.7,5.01,0.00,27.6,26.7,00.0,36.6,29.4,20.0,0000.0,0011.43,0007.27,0006.52
2022-05-02 08:25:00,,0821.7,4.99,0.00,27.6,26.7,00.0,36.6,29.4,19.9,0000.0,0011.85,0007.29,0006.52
2022-05-02 08:26:00,,0821.7,5.01,0.00,27.6,26.7,00.0,36.6,29.4,19.9,0000.0,0011.65,0007.23,0006.52
2022-05-02 08:27:00,,0821.7,4.98,0.00,27.6,26.7,00.0,36.6,29.4,19.8,0000.0,0011.31,0007.15,0006.51
2022-05-02 08:28:00,,0821.6,5.02,0.00,27.6,26.7,00.0,36.6,29.4,19.8,0000.0,0011.16,0007.08,0006.48
2022-05-02 08:29:00,,0821.6,5.00,0.00,27.6,26.6,00.0,36.6,29.4,19.8,0000.0,0010.85,0007.01,0006.45
2022-05-02 08:30:00,,0821.5,4.99,0.00,27.6,26.6,00.0,36.6,29.4,19.7,0000.0,0010.65,0006.96,0006.41
2022-05-02 08:31:00,,0821.6,5.00,0.00,27.6,26.6,00.0,36.6,29.4,19.7,0000.0,0010.53,0006.88,0006.34
2022-05-02 08:32:00,,0821.6,5.01,0.00,27.6,26.6,00.0,36.6,29.4,19.7,0000.0,0010.38,0006.79,0006.27
2022-05-02 08:33:00,,0821.6,4.99,0.00,27.6,26.6,00.0,36.6,29.4,19.6,0000.0,0010.59,0006.73,0006.20
2022-05-02 08:34:00,,0821.7,5.00,0.00,27.5,26.6,00.0,36.6,29.3,19.6,0000.0,0010.80,0006.67,0006.13
2022-05-02 08:35:00,,0821.7,5.01,0.00,27.6,26.6,00.0,36.6,29.3,19.6,0000.0,0010.81,0006.58,0006.06
2022-05-02 08:36:00,,0821.7,4.98,0.00,27.5,26.6,00.0,36.6,29.3,19.6,0000.0,0010.57,0006.48,0005.99
2022-05-02 08:37:00,,0821.7,5.01,0.00,27.5,26.6,00.0,36.6,29.3,19.6,0000.0,0010.42,0006.37,0005.90
2022-05-02 08:38:00,,0821.7,4.98,0.00,27.5,26.6,00.0,36.5,29.3,19.6,0000.0,0010.27,0006.26,0005.82
2022-05-02 08:39:00,,0821.7,5.01,0.00,27.5,26.6,00.0,36.5,29.3,19.6,0000.0,0010.34,0006.23,0005.76
2022-05-02 08:40:00,,0821.8,5.00,0.00,27.5,26.6,00.0,36.5,29.3,19.6,0000.0,0010.31,0006.19,0005.71
2022-05-02 08:41:00,,0821.9,4.99,0.00,27.5,26.5,00.0,36.5,29.3,19.6,0000.0,0010.22,0006.12,0005.67
2022-05-02 08:42:00,,0821.9,5.01,0.00,27.5,26.5,00.0,36.5,29.3,19.6,0000.0,0010.05,0006.06,0005.64
2022-05-02 08:43:00,,0821.9,4.99,0.00,27.5,26.5,00.0,36.5,29.3,19.6,0000.0,0009.98,0006.02,0005.61
2022-05-02 08:44:00,,0821.8,5.00,0.00,27.5,26.5,00.0,36.5,29.3,19.6,0000.0,0009.66,0005.98,0005.57
2022-05-02 08:45:00,,0821.8,5.01,0.00,27.5,26.5,00.0,36.5,29.3,19.6,0000.0,0009.45,0005.95,0005.55
2022-05-02 08:46:00,,0821.8,4.99,0.00,27.5,26.5,00.0,36.5,29.3,19.6,0000.0,0009.17,0005.89,0005.50
2022-05-02 08:47:00,,0821.7,4.99,0.00,27.5,26.5,00.0,36.5,29.2,19.5,0000.0,0008.62,0005.83,0005.43
2022-05-02 08:48:00,,0821.7,5.01,0.00,27.4,26.5,00.0,36.5,29.2,19.5,0000.0,0008.58,0005.78,0005.38
2022-05-02 08:49:00,,0821.7,4.99,0.00,27.4,26.5,00.0,36.4,29.2,19.5,0000.0,0008.66,0005.77,0005.33
2022-05-02 08:50:00,,0821.6,4.99,0.00,27.4,26.5,00.0,36.4,29.2,19.5,0000.0,0008.53,0005.69,0005.28
2022-05-02 08:51:00,,0821.7,5.01,0.00,27.4,26.4,00.0,36.4,29.2,19.5,0000.0,0008.34,0005.58,0005.20
2022-05-02 08:52:00,,0821.6,5.01,0.00,27.4,26.4,00.0,36.4,29.2,19.5,0000.0,0008.34,0005.51,0005.12
2022-05-02 08:53:00,,0821.7,4.99,0.00,27.4,26.4,00.0,36.4,29.2,19.5,0000.0,0008.42,0005.47,0005.05
2022-05-02 08:54:00,,0821.7,5.00,0.00,27.4,26.4,00.0,36.4,29.2,19.5,0000.0,0008.44,0005.43,0004.99
2022-05-02 08:55:00,,0821.8,5.00,0.00,27.4,26.4,00.0,36.4,29.2,19.5,0000.0,0008.37,0005.37,0004.94
2022-05-02 08:56:00,,0821.8,4.99,0.00,27.4,26.4,00.0,36.4,29.2,19.5,0000.0,0008.19,0005.28,0004.89
2022-05-02 08:57:00,,0821.8,5.01,0.00,27.4,26.4,00.0,36.4,29.2,19.5,0000.0,0008.22,0005.27,0004.85
2022-05-02 08:58:00,,0821.8,5.01,0.00,27.4,26.4,00.0,36.4,29.2,19.4,0000.0,0008.18,0005.24,0004.83
2022-05-02 08:59:00,,0821.7,4.99,0.00,27.4,26.4,00.0,36.4,29.1,19.4,0000.0,0008.20,0005.22,0004.81
